Volver al catálogo

STARLINK-37060

ActivoComunicacionesSSO
NORAD 68150·PAYLOAD·🇺🇸 United States

Lanzado Mar 13, 2026 desde Vandenberg Space Force Base

Loading…

Próximos Pases (próximas 24 horas)

TLE

ActualizadoSource: CelesTrak SupGP

Época: Sep 15, 2026, 02:45 UTC

1 68150C 26049J   26258.11506944 -.00177720  00000+0 -55175-2 0  2582
2 68150  97.2836 278.1879 0001061  85.1047  82.9649 15.33525968    18

Sigue STARLINK-37060 en tiempo real con AllMySat

Download on the App Store